Weather History for Weslaco, TX

Change the Weather History Date:

Tuesday, May 28, 2013

  Actual Average (KMFE) Record (KMFE)
Temperature  
Mean Temperature 84 °F 84 °F  
Max Temperature 91 °F 94 °F 104 °F (1973)
Min Temperature 77 °F 74 °F 60 °F (1951)
Degree Days  
Heating Degree Days 0 0  
Month to date heating degree days 0  
Since 1 July heating degree days 579  
Cooling Degree Days 18 19  
Month to date cooling degree days 466  
Year to date cooling degree days 1197  
Growing Degree Days 34 (Base 50)    
Moisture  
Dew Point 70 °F    
Average Humidity 68    
Maximum Humidity 85    
Minimum Humidity 48    
Precipitation  
Precipitation 0.00 in 0.08 in 2.10 in (1975)
Month to date precipitation 2.01  
Year to date precipitation 6.54  
Sea Level Pressure  
Sea Level Pressure 29.81 in    
Wind  
Wind Speed 15 mph (SSE)    
Max Wind Speed 24 mph    
Max Gust Speed 34 mph    
Visibility 8 miles    
Events      
T = Trace of Precipitation, MM = Missing Value Source: NWS Daily Summary

Daily Weather History Graph

Daily Weather History Graph

Search for Another Location

Airport:

Trip Planner

Search our weather history database for the weather conditions in past years. The results will help you decide how hot, cold, wet, or windy it might be!

Date:

Astronomy

May. 28, 2013 Rise Set
Actual Time 6:40 AM CDT 8:18 PM CDT
Civil Twilight 6:14 AM CDT 8:43 PM CDT
Nautical Twilight 5:44 AM CDT 9:14 PM CDT
Astronomical Twilight 5:11 AM CDT 9:46 PM CDT
Moon 11:55 PM CDT (5/28) 10:21 AM CDT (5/28)
Length of Visible Light 14h 29m
Length of Day
13h 37m
Waning Gibbous, 82% of the Moon is Illuminated
May 28
Waning Gibbous
May 31
Last Quarter
Jun 8
New
Jun 16
First Quarter
Jun 23
Full

Hourly Weather History & Observations

Time (CDT) Temp. Heat Index Dew Point Humidity Pressure Visibility Wind Dir Wind Speed Gust Speed Precip Events Conditions
12:15 AM 77.5 °F - 72.1 °F 83% 29.90 in 10.0 mi SE 10.4 mph 17.3 mph N/A   Overcast
12:35 AM 77.9 °F - 72.1 °F 82% 29.90 in 10.0 mi SE 11.5 mph - N/A   Overcast
12:55 AM 77.9 °F - 72.1 °F 82% 29.90 in 10.0 mi SE 10.4 mph 19.6 mph N/A   Mostly Cloudy
1:15 AM 77.9 °F - 72.3 °F 83% 29.90 in 10.0 mi SE 10.4 mph - N/A   Mostly Cloudy
1:35 AM 77.9 °F - 72.5 °F 83% 29.89 in 7.0 mi SE 10.4 mph - N/A   Mostly Cloudy
1:55 AM 77.9 °F - 72.3 °F 83% 29.88 in 10.0 mi SE 11.5 mph 18.4 mph N/A   Mostly Cloudy
2:15 AM 77.9 °F - 72.1 °F 82% 29.88 in 10.0 mi SE 13.8 mph 18.4 mph N/A   Scattered Clouds
2:35 AM 77.9 °F - 72.1 °F 82% 29.88 in 10.0 mi SE 11.5 mph 18.4 mph N/A   Mostly Cloudy
2:55 AM 77.9 °F - 72.5 °F 83% 29.87 in 7.0 mi SE 13.8 mph 17.3 mph N/A   Mostly Cloudy
3:15 AM 77.4 °F - 72.1 °F 84% 29.86 in 7.0 mi SE 12.7 mph 18.4 mph N/A   Mostly Cloudy
3:35 AM 77.4 °F - 72.0 °F 83% 29.86 in 10.0 mi SE 10.4 mph 17.3 mph N/A   Scattered Clouds
3:55 AM 77.4 °F - 71.8 °F 83% 29.85 in 10.0 mi SE 12.7 mph 19.6 mph N/A   Scattered Clouds
4:15 AM 77.4 °F - 72.1 °F 84% 29.84 in 7.0 mi SE 11.5 mph 20.7 mph N/A   Mostly Cloudy
4:35 AM 77.4 °F - 72.5 °F 85% 29.84 in 7.0 mi SSE 9.2 mph - N/A   Mostly Cloudy
4:55 AM 77.4 °F - 72.5 °F 85% 29.83 in 7.0 mi SE 10.4 mph - N/A   Overcast
5:15 AM 77.4 °F - 72.5 °F 85% 29.84 in 7.0 mi SSE 8.1 mph - N/A   Overcast
5:35 AM 77.5 °F - 72.3 °F 84% 29.83 in 10.0 mi SE 9.2 mph - N/A   Overcast
5:55 AM 77.4 °F - 72.3 °F 84% 29.84 in 7.0 mi SE 9.2 mph - N/A   Overcast
6:15 AM 77.0 °F - 72.1 °F 85% 29.83 in 7.0 mi SSE 10.4 mph - N/A   Overcast
6:35 AM 77.0 °F - 72.1 °F 85% 29.83 in 7.0 mi SE 10.4 mph - N/A   Overcast
6:55 AM 77.4 °F - 72.1 °F 84% 29.83 in 4.0 mi SSE 9.2 mph 16.1 mph N/A   Haze
7:15 AM 77.9 °F - 72.5 °F 83% 29.84 in 7.0 mi SSE 11.5 mph - N/A   Mostly Cloudy
7:35 AM 78.8 °F - 72.1 °F 80% 29.84 in 5.0 mi SSE 11.5 mph 18.4 mph N/A   Haze
7:55 AM 79.7 °F - 72.1 °F 78% 29.84 in 7.0 mi SSE 12.7 mph 18.4 mph N/A   Scattered Clouds
8:15 AM 80.6 °F 84.6 °F 71.6 °F 74% 29.83 in 5.0 mi SSE 15.0 mph 19.6 mph N/A   Haze
8:35 AM 81.1 °F 85.4 °F 71.6 °F 73% 29.83 in 10.0 mi SSE 16.1 mph 19.6 mph N/A   Overcast
8:55 AM 81.0 °F 84.7 °F 70.7 °F 71% 29.83 in 10.0 mi SSE 12.7 mph 24.2 mph N/A   Overcast
9:15 AM 83.7 °F 87.7 °F 70.0 °F 63% 29.83 in 10.0 mi SSE 21.9 mph 27.6 mph N/A   Mostly Cloudy
9:35 AM 84.6 °F 88.2 °F 68.9 °F 59% 29.83 in 10.0 mi SSE 24.2 mph 32.2 mph N/A   Mostly Cloudy
9:55 AM 85.5 °F 88.8 °F 68.4 °F 56% 29.83 in 7.0 mi SSE 24.2 mph 33.4 mph N/A   Mostly Cloudy
10:15 AM 86.2 °F 90.4 °F 69.3 °F 57% 29.83 in 10.0 mi South 18.4 mph 31.1 mph N/A   Mostly Cloudy
10:35 AM 84.7 °F 87.9 °F 68.0 °F 57% 29.83 in 7.0 mi South 21.9 mph 27.6 mph N/A   Mostly Cloudy
10:55 AM 86.7 °F 90.3 °F 68.4 °F 54% 29.83 in 7.0 mi South 18.4 mph 25.3 mph N/A   Scattered Clouds
11:15 AM 86.7 °F 90.3 °F 68.4 °F 54% 29.83 in 7.0 mi SSE 18.4 mph 29.9 mph N/A   Mostly Cloudy
11:35 AM 87.8 °F 91.8 °F 68.9 °F 53% 29.83 in 7.0 mi SSE 19.6 mph 26.5 mph N/A   Mostly Cloudy
11:55 AM 89.6 °F 94.7 °F 70.0 °F 52% 29.83 in 7.0 mi SSE 20.7 mph 28.8 mph N/A   Mostly Cloudy
12:15 PM 88.9 °F 93.0 °F 68.9 °F 51% 29.82 in 10.0 mi SSE 23.0 mph 31.1 mph N/A   Scattered Clouds
12:35 PM 89.4 °F 93.5 °F 68.4 °F 50% 29.82 in 7.0 mi SSE 17.3 mph 31.1 mph N/A   Scattered Clouds
12:55 PM 89.8 °F 93.8 °F 68.2 °F 49% 29.80 in 7.0 mi South 20.7 mph 29.9 mph N/A   Mostly Cloudy
1:15 PM 90.5 °F 95.1 °F 69.1 °F 49% 29.80 in 7.0 mi SSE 19.6 mph 28.8 mph N/A   Mostly Cloudy
1:35 PM 90.3 °F 94.7 °F 68.5 °F 49% 29.80 in 7.0 mi SSE 24.2 mph 34.5 mph N/A   Mostly Cloudy
1:55 PM 90.7 °F 95.9 °F 69.8 °F 50% 29.79 in 10.0 mi SSE 23.0 mph 32.2 mph N/A   Scattered Clouds
2:15 PM 90.5 °F 94.6 °F 68.5 °F 48% 29.79 in 7.0 mi SSE 24.2 mph 31.1 mph N/A   Scattered Clouds
2:35 PM 89.8 °F 94.2 °F 68.9 °F 50% 29.79 in 7.0 mi SSE 18.4 mph 32.2 mph N/A   Mostly Cloudy
2:55 PM 88.7 °F 92.6 °F 68.7 °F 51% 29.78 in 7.0 mi SSE 23.0 mph 32.2 mph N/A   Mostly Cloudy
3:15 PM 89.6 °F 94.3 °F 69.1 °F 51% 29.78 in 7.0 mi SSE 23.0 mph 32.2 mph N/A   Mostly Cloudy
3:35 PM 90.5 °F 95.1 °F 68.7 °F 49% 29.78 in 7.0 mi SSE 18.4 mph 31.1 mph N/A   Mostly Cloudy
3:55 PM 89.1 °F 92.9 °F 68.2 °F 50% 29.77 in 10.0 mi SSE 23.0 mph 28.8 mph N/A   Mostly Cloudy
4:15 PM 90.1 °F 95.3 °F 69.6 °F 51% 29.76 in 7.0 mi SE 18.4 mph 29.9 mph N/A   Mostly Cloudy
4:35 PM 88.3 °F 92.4 °F 68.9 °F 52% 29.76 in 7.0 mi SSE 24.2 mph 32.2 mph N/A   Mostly Cloudy
4:55 PM 88.0 °F 92.1 °F 68.7 °F 53% 29.75 in 7.0 mi SE 21.9 mph 32.2 mph N/A   Mostly Cloudy
5:15 PM 88.9 °F 93.4 °F 69.3 °F 52% 29.75 in 7.0 mi SE 20.7 mph 31.1 mph N/A   Mostly Cloudy
5:35 PM 87.8 °F 91.8 °F 68.7 °F 53% 29.75 in 7.0 mi SSE 18.4 mph 26.5 mph N/A   Mostly Cloudy
5:55 PM 86.2 °F 89.7 °F 68.2 °F 55% 29.75 in 7.0 mi SE 20.7 mph 28.8 mph N/A   Scattered Clouds
6:15 PM 86.4 °F 90.4 °F 68.9 °F 56% 29.75 in 10.0 mi SE 19.6 mph 31.1 mph N/A   Scattered Clouds
6:35 PM 86.0 °F 89.7 °F 68.9 °F 56% 29.75 in 7.0 mi SSE 20.7 mph 29.9 mph N/A   Clear
6:55 PM 85.8 °F 90.1 °F 69.6 °F 58% 29.75 in 7.0 mi SE 19.6 mph 28.8 mph N/A   Scattered Clouds
7:15 PM 84.0 °F 87.6 °F 68.9 °F 60% 29.75 in 7.0 mi SSE 20.7 mph 33.4 mph N/A   Scattered Clouds
7:35 PM 83.3 °F 86.4 °F 68.2 °F 60% 29.75 in 10.0 mi SE 19.6 mph 32.2 mph N/A   Clear
7:55 PM 82.4 °F 85.4 °F 68.4 °F 62% 29.76 in 10.0 mi SE 20.7 mph 27.6 mph N/A   Clear
8:15 PM 81.5 °F 84.8 °F 69.1 °F 66% 29.76 in 10.0 mi SE 19.6 mph 29.9 mph N/A   Clear
8:35 PM 80.8 °F 84.1 °F 69.8 °F 69% 29.78 in 10.0 mi SSE 18.4 mph 24.2 mph N/A   Clear
8:55 PM 80.6 °F 84.2 °F 70.7 °F 72% 29.78 in 10.0 mi SE 16.1 mph 20.7 mph N/A   Mostly Cloudy
9:15 PM 79.9 °F - 70.9 °F 74% 29.78 in 10.0 mi SE 19.6 mph 24.2 mph N/A   Overcast
9:35 PM 79.7 °F - 70.9 °F 74% 29.79 in 10.0 mi SSE 18.4 mph 23.0 mph N/A   Overcast
9:55 PM 79.3 °F - 71.1 °F 76% 29.78 in 10.0 mi SE 16.1 mph 23.0 mph N/A   Overcast
10:15 PM 79.0 °F - 71.2 °F 77% 29.78 in 10.0 mi SSE 16.1 mph 24.2 mph N/A   Overcast
10:35 PM 79.0 °F - 71.2 °F 77% 29.78 in 10.0 mi SE 19.6 mph 26.5 mph N/A   Mostly Cloudy
10:55 PM 79.2 °F - 71.2 °F 77% 29.78 in 10.0 mi SE 18.4 mph 26.5 mph N/A   Overcast
11:15 PM 79.0 °F - 71.2 °F 77% 29.78 in 10.0 mi SE 19.6 mph 27.6 mph N/A   Overcast
11:35 PM 79.2 °F - 71.6 °F 78% 29.78 in 10.0 mi SSE 21.9 mph 28.8 mph N/A   Overcast
11:55 PM 79.0 °F - 71.6 °F 78% 29.79 in 10.0 mi SSE 13.8 mph 24.2 mph N/A   Overcast